Powrót do katalogu

THOR ABLESTAR DEB

AktywnyLEO
NORAD 128·DEBRIS·🇺🇸 United States

Wystrzelony Jun 29, 1961 z Cape Canaveral Space Force Station

Loading…

Następne Przeloty (najbliższe 24 godziny)

TLE

ŚwieżeSource: Space-Track

Epoka: Sep 7, 2026, 13:38 UTC

1 00128U 61015N   26250.56814023  .00000013  00000-0  58649-4 0  9998
2 00128  66.6770 333.9495 0100823 262.4977  96.4644 14.02051772326623

Śledź THOR ABLESTAR DEB w czasie rzeczywistym z AllMySat

Download on the App Store